Date,TemperatureHighF,TemperatureAvgF,TemperatureLowF,DewpointHighF,DewpointAvgF,DewpointLowF,HumidityHigh,HumidityAvg,HumidityLow,PressureMaxIn,PressureMinIn,WindSpeedMaxMPH,WindSpeedAvgMPH,GustSpeedMaxMPH,PrecipitationSumIn
2013-7-1,81.5,76.3,73.4,75.3,72.1,70.4,90,87,78,30.01,29.88,0,0,0,0.00
2013-7-2,78.8,76.6,73.8,74.7,72.7,70.7,90,88,85,30.18,30.06,0,0,0,0.00
2013-7-3,85.5,76.2,74.5,77.0,72.4,71.1,90,88,76,30.24,30.16,0,0,0,0.00
2013-7-4,92.0,79.6,75.1,75.7,73.7,72.0,90,83,59,30.26,30.20,0,0,0,0.00
2013-7-5,77.2,73.9,72.0,73.8,70.3,68.2,89,88,88,30.25,30.24,0,0,0,0.00
2013-7-6,94.1,86.3,75.8,76.1,72.8,68.1,78,65,51,30.24,30.13,0,0,0,0.00
2013-7-7,88.9,81.2,76.1,73.8,72.6,71.1,88,76,60,30.20,30.09,0,0,0,0.00
2013-7-8,92.2,82.4,72.7,76.3,73.5,68.9,88,75,60,30.18,30.11,0,0,0,0.00
2013-7-9,83.9,79.5,75.1,75.5,73.8,71.5,89,83,76,30.16,30.10,0,0,0,0.00
2013-7-10,94.7,88.2,74.2,74.4,72.5,70.7,89,61,51,30.09,29.97,0,0,0,0.00
2013-7-11,91.1,83.0,75.1,76.1,72.7,70.4,87,72,57,29.98,29.88,0,0,0,0.00
2013-7-12,80.3,76.7,73.1,73.6,71.8,69.0,88,85,79,29.98,29.93,0,0,0,0.00
2013-7-13,78.7,76.0,74.0,74.5,72.2,70.6,89,88,86,30.14,30.05,0,0,0,0.00
2013-7-14,93.2,86.3,73.8,77.1,74.6,70.4,89,69,56,30.26,30.21,0,0,0,0.00
2013-7-15,94.9,80.1,72.2,77.2,71.4,67.8,87,76,57,30.28,30.23,0,0,0,0.00
2013-7-16,102.8,85.5,71.3,77.5,73.7,66.9,86,70,42,30.28,30.17,0,0,0,0.00
2013-7-17,97.9,81.7,75.6,78.2,73.7,71.2,87,78,50,30.21,30.10,0,0,0,0.00
2013-7-18,91.3,82.8,74.9,74.7,73.0,70.5,86,73,56,30.14,30.06,0,0,0,0.00
2013-7-19,92.9,81.0,73.8,74.8,72.1,69.8,87,76,55,30.13,30.01,0,0,0,0.00
2013-7-20,89.1,80.9,75.2,74.5,72.6,70.8,86,76,60,30.06,29.97,0,0,0,0.00
2013-7-21,88.9,78.8,74.0,76.2,72.7,69.9,87,82,66,30.02,29.93,0,0,0,0.00
2013-7-22,92.9,82.5,74.2,77.5,73.5,70.4,88,76,58,29.96,29.87,0,0,0,0.00
2013-7-23,97.4,86.3,75.6,75.4,73.6,71.2,86,67,49,29.86,29.74,0,0,0,0.00
2013-7-24,90.7,82.3,72.0,75.7,72.9,66.9,86,74,61,29.80,29.75,0,0,0,0.00
2013-7-25,88.4,78.5,70.7,73.3,69.9,66.7,87,75,61,29.99,29.84,0,0,0,0.00
2013-7-26,89.8,75.7,67.0,69.3,66.4,63.3,88,75,49,30.07,30.04,0,0,0,0.00
2013-7-27,87.8,79.2,73.8,74.1,71.0,68.7,86,77,60,30.03,29.95,0,0,0,0.00
2013-7-28,83.3,80.7,76.9,72.9,71.8,70.2,80,75,71,30.00,29.97,0,0,0,0.00
2013-7-29,92.9,80.5,72.4,75.3,72.7,67.6,87,78,54,30.13,30.04,0,0,0,0.00
2013-7-30,93.2,78.5,68.2,74.9,69.8,64.5,88,76,49,30.19,30.11,0,0,0,0.00
2013-7-31,86.8,80.9,73.8,75.5,72.9,69.8,87,77,66,30.14,30.02,0,0,0,0.00